Charlevoix, MI

10:17 PM EDT on June 22, 2017 (GMT -0400)
Charlevoix Municipal

Weather History for KCVX - September, 2012

Change the Weather History Date:

Thursday, September 6, 2012

  Actual Average Record
Temperature  
Mean Temperature 66 °F -  
Max Temperature 77 °F 75 °F 86 °F (2007)
Min Temperature 56 °F 57 °F 41 °F (2011)
Cooling Degree Days 2    
Growing Degree Days 16 (Base 50)    
Moisture  
Dew Point 56 °F    
Average Humidity 71    
Maximum Humidity 97    
Minimum Humidity 34    
Precipitation  
Precipitation 0.00 in - - ()
Sea Level Pressure  
Sea Level Pressure 29.91 in    
Wind  
Wind Speed 4 mph (WSW)    
Max Wind Speed 15 mph    
Max Gust Speed 18 mph    
Visibility 10 miles    
Events      
Averages and records for this station are not official NWS values.
T = Trace of Precipitation, MM = Missing Value Source: NWS Daily Summary

Daily Weather History Graph

Daily Weather History Graph

Search for Another Location

Airport or City:

Trip Planner

Search our weather history database for the weather conditions in past years. The results will help you decide how hot, cold, wet, or windy it might be!

Date:

Astronomy

Sep. 06, 2012 Rise Set
Actual Time 7:09 AM EDT 8:08 PM EDT
Civil Twilight 6:39 AM EDT 8:38 PM EDT
Nautical Twilight 6:03 AM EDT 9:14 PM EDT
Astronomical Twilight 5:25 AM EDT 9:51 PM EDT
Moon 10:58 PM EDT (9/6) 1:27 PM EDT (9/6)
Length of Visible Light 13h 59m
Length of Day
12h 58m
Waning Gibbous, 67% of the Moon is Illuminated
Sep 6
Waning Gibbous
Sep 8
Last Quarter
Sep 15
New
Sep 22
First Quarter
Sep 29
Full

Hourly Weather History & Observations

Time (EDT) Temp. Dew Point Humidity Pressure Visibility Wind Dir Wind Speed Gust Speed Precip Events Conditions
12:14 AM 58.3 °F 57.4 °F 97% 29.85 in 10.0 mi SSW 3.5 mph - N/A   Clear
12:34 AM 58.6 °F 57.6 °F 96% 29.85 in 10.0 mi Calm Calm - N/A   Clear
12:54 AM 57.9 °F 57.0 °F 97% 29.85 in 10.0 mi Calm Calm - N/A   Scattered Clouds
1:14 AM 58.3 °F 57.2 °F 96% 29.86 in 10.0 mi Calm Calm - N/A   Scattered Clouds
1:34 AM 58.5 °F 57.6 °F 97% 29.86 in 10.0 mi Calm Calm - N/A   Scattered Clouds
1:54 AM 57.4 °F 56.5 °F 97% 29.86 in 10.0 mi Calm Calm - N/A   Clear
2:14 AM 58.1 °F 57.0 °F 96% 29.86 in 10.0 mi Calm Calm - N/A   Clear
2:34 AM 57.2 °F 56.1 °F 96% 29.86 in 10.0 mi Calm Calm - N/A   Clear
2:54 AM 57.4 °F 56.7 °F 97% 29.86 in 10.0 mi Calm Calm - N/A   Clear
3:14 AM 58.3 °F 57.4 °F 97% 29.87 in 10.0 mi Calm Calm - N/A   Clear
3:34 AM 58.6 °F 57.2 °F 95% 29.86 in 10.0 mi Calm Calm - N/A   Clear
3:54 AM 58.1 °F 56.7 °F 95% 29.86 in 10.0 mi Calm Calm - N/A   Clear
4:14 AM 57.4 °F 56.1 °F 96% 29.86 in 10.0 mi Calm Calm - N/A   Clear
4:34 AM 58.1 °F 56.8 °F 96% 29.86 in 10.0 mi Calm Calm - N/A   Clear
4:54 AM 56.7 °F 55.6 °F 96% 29.86 in 10.0 mi Calm Calm - N/A   Clear
5:14 AM 57.0 °F 55.6 °F 95% 29.87 in 10.0 mi Calm Calm - N/A   Clear
5:34 AM 57.4 °F 55.6 °F 94% 29.87 in 10.0 mi Calm Calm - N/A   Scattered Clouds
5:54 AM 59.0 °F 57.4 °F 94% 29.87 in 10.0 mi South 3.5 mph - N/A   Mostly Cloudy
6:14 AM 61.3 °F 60.3 °F 96% 29.87 in 10.0 mi SSW 3.5 mph - N/A   Mostly Cloudy
6:34 AM 62.2 °F 61.0 °F 96% 29.88 in 10.0 mi SSW 4.6 mph - N/A   Mostly Cloudy
6:54 AM 62.8 °F 61.7 °F 96% 29.89 in 10.0 mi Calm Calm - N/A   Overcast
7:14 AM 62.8 °F 61.3 °F 95% 29.90 in 10.0 mi East 3.5 mph - N/A   Mostly Cloudy
7:34 AM 62.1 °F 60.6 °F 95% 29.91 in 10.0 mi Calm Calm - N/A   Mostly Cloudy
7:54 AM 62.8 °F 61.3 °F 95% 29.92 in 10.0 mi Calm Calm - N/A   Overcast
8:14 AM 64.4 °F 62.6 °F 94% 29.92 in 10.0 mi SSW 5.8 mph - N/A   Mostly Cloudy
8:35 AM 65.8 °F 63.5 °F 92% 29.92 in 10.0 mi SSW 5.8 mph - N/A   Mostly Cloudy
8:54 AM 66.0 °F 63.1 °F 90% 29.92 in 10.0 mi SSW 5.8 mph - N/A   Scattered Clouds
9:14 AM 66.9 °F 64.0 °F 90% 29.92 in 10.0 mi SW 6.9 mph - N/A   Scattered Clouds
9:34 AM 68.4 °F 64.4 °F 87% 29.93 in 10.0 mi SSW 5.8 mph - N/A   Scattered Clouds
9:54 AM 68.9 °F 64.6 °F 86% 29.93 in 10.0 mi SW 4.6 mph - N/A   Mostly Cloudy
10:15 AM 69.3 °F 64.6 °F 85% 29.93 in 10.0 mi SW 4.6 mph - N/A   Scattered Clouds
10:54 AM 73.8 °F 63.7 °F 71% 29.93 in 10.0 mi West 10.4 mph - N/A   Scattered Clouds
11:15 AM 72.0 °F 63.0 °F 73% 29.93 in 10.0 mi West 12.7 mph 17.3 mph N/A   Mostly Cloudy
11:34 AM 73.0 °F 63.3 °F 71% 29.94 in 10.0 mi West 13.8 mph 18.4 mph N/A   Mostly Cloudy
11:54 AM 73.6 °F 62.8 °F 69% 29.94 in 10.0 mi WSW 10.4 mph - N/A   Scattered Clouds
12:15 PM 74.8 °F 62.8 °F 66% 29.94 in 10.0 mi West 15.0 mph - N/A   Scattered Clouds
12:34 PM 74.5 °F 61.7 °F 64% 29.94 in 10.0 mi West 12.7 mph 17.3 mph N/A   Clear
12:54 PM 75.6 °F 56.5 °F 51% 29.94 in 10.0 mi West 11.5 mph - N/A   Clear
1:14 PM 77.0 °F 51.6 °F 41% 29.94 in 10.0 mi West 10.4 mph 16.1 mph N/A   Clear
1:34 PM 76.1 °F 58.1 °F 54% 29.94 in 10.0 mi West 11.5 mph - N/A   Clear
1:54 PM 75.4 °F 58.6 °F 56% 29.94 in 10.0 mi West 10.4 mph - N/A   Clear
2:14 PM 75.4 °F 57.9 °F 54% 29.94 in 10.0 mi WNW 10.4 mph 16.1 mph N/A   Clear
2:34 PM 75.2 °F 55.2 °F 50% 29.94 in 10.0 mi WNW 8.1 mph - N/A   Clear
2:54 PM 76.3 °F 55.4 °F 48% 29.93 in 10.0 mi West 9.2 mph - N/A   Clear
3:14 PM 76.6 °F 51.6 °F 42% 29.93 in 10.0 mi West 8.1 mph - N/A   Clear
3:34 PM 76.8 °F 47.5 °F 35% 29.93 in 10.0 mi West 11.5 mph - N/A   Clear
3:54 PM 76.8 °F 46.9 °F 35% 29.93 in 10.0 mi West 8.1 mph - N/A   Clear
4:14 PM 77.0 °F 49.3 °F 38% 29.93 in 10.0 mi West 10.4 mph - N/A   Clear
4:34 PM 76.3 °F 47.1 °F 36% 29.93 in 10.0 mi West 11.5 mph - N/A   Clear
4:54 PM 75.7 °F 46.6 °F 35% 29.92 in 10.0 mi West 10.4 mph - N/A   Clear
5:14 PM 76.3 °F 47.1 °F 36% 29.92 in 10.0 mi West 10.4 mph - N/A   Clear
5:34 PM 75.9 °F 47.5 °F 36% 29.92 in 10.0 mi West 9.2 mph - N/A   Clear
5:54 PM 75.4 °F 45.0 °F 34% 29.92 in 10.0 mi WSW 9.2 mph - N/A   Clear
6:14 PM 74.7 °F 47.5 °F 38% 29.92 in 10.0 mi WSW 9.2 mph - N/A   Clear
6:34 PM 74.3 °F 48.2 °F 40% 29.92 in 10.0 mi SW 6.9 mph - N/A   Clear
6:54 PM 73.4 °F 47.8 °F 40% 29.92 in 10.0 mi SW 6.9 mph - N/A   Clear
7:14 PM 72.7 °F 50.2 °F 45% 29.92 in 10.0 mi SSW 6.9 mph - N/A   Clear
7:34 PM 70.9 °F 50.7 °F 49% 29.92 in 10.0 mi SW 4.6 mph - N/A   Clear
7:54 PM 69.1 °F 52.3 °F 55% 29.92 in 10.0 mi SSW 3.5 mph - N/A   Clear
8:15 PM 68.0 °F 53.4 °F 60% 29.92 in 10.0 mi SSW 3.5 mph - N/A   Clear
8:34 PM 66.2 °F 53.6 °F 64% 29.92 in 10.0 mi SSW 5.8 mph - N/A   Clear
8:54 PM 66.0 °F 53.1 °F 63% 29.92 in 10.0 mi SSW 5.8 mph - N/A   Clear
9:14 PM 66.0 °F 53.1 °F 63% 29.92 in 10.0 mi SSW 5.8 mph - N/A   Clear
9:34 PM 65.3 °F 53.6 °F 66% 29.92 in 10.0 mi SSW 4.6 mph - N/A   Clear
9:54 PM 65.1 °F 53.2 °F 65% 29.92 in 10.0 mi SSW 4.6 mph - N/A   Clear
10:14 PM 65.3 °F 52.7 °F 64% 29.92 in 10.0 mi South 4.6 mph - N/A   Clear
10:35 PM 65.3 °F 52.2 °F 62% 29.92 in 10.0 mi South 3.5 mph - N/A   Clear
10:54 PM 64.8 °F 52.7 °F 65% 29.92 in 10.0 mi Calm Calm - N/A   Clear
11:14 PM 63.9 °F 53.6 °F 69% 29.92 in 10.0 mi Calm Calm - N/A   Clear
11:34 PM 64.4 °F 53.1 °F 67% 29.92 in 10.0 mi Calm Calm - N/A   Clear
11:54 PM 62.6 °F 53.6 °F 72% 29.92 in 10.0 mi Calm Calm - N/A   Clear